Regional Weather Roundup
Issued by NWS

Home | Current Version | Previous Version | Graphics & Text | Print | Product List | Glossary On
Versions: 1 2 3 4 5 6 7 8 9 10 11 12 13 14 15 16 17 18 19 20 21 22 23 24 25 26 27 28 29 30 31 32 33 34 35 36 37 38 39 40 41 42 43 44 45 46 47 48 49 50
000
ASUS43 KBIS 031610
RWRND

NORTH DAKOTA REGIONAL WEATHER ROUNDUP
NATIONAL WEATHER SERVICE BISMARCK ND
1100 AM CDT MON AUG 03 2015

NOTE: "FAIR" INDICATES FEW OR NO CLOUDS BELOW 12,000 FEET WITH NO
SIGNIFICANT WEATHER AND/OR OBSTRUCTIONS TO VISIBILITY.


NDZ001>003-009>011-017-031700-
NORTHWEST NORTH DAKOTA

CITY           SKY/WX    TMP DP  RH WIND       PRES   REMARKS
WILLISTON      SUNNY     72  47  40 SE3       30.04F
MINOT          MOSUNNY   72  49  44 CALM      30.02S
MINOT AFB      SUNNY     75  50  40 W7        30.01S
$$

NDZ018>021-031>035-040>046-031700-
SOUTHWEST NORTH DAKOTA

CITY           SKY/WX    TMP DP  RH WIND       PRES   REMARKS
BISMARCK       SUNNY     72  53  51 S5        30.04S
DICKINSON      SUNNY     72  48  42 E7        30.04F
GARRISON         N/A     71  50  47 CALM      30.03F
HETTINGER ARPT SUNNY     73  50  44 SE5       30.06F
$$

NDZ004>008-012>016-024-026-027-054-031700-
NORTHEAST NORTH DAKOTA

CITY           SKY/WX    TMP DP  RH WIND       PRES   REMARKS
GRAND FORKS    MOSUNNY   70  52  52 NW13      29.94R
GRND FRKS AFB  SUNNY     70  51  51 N12       29.95R
DEVILS LAKE    SUNNY     70  48  46 NW13      29.98S
$$

NDZ022-023-025-028>030-036>039-047>053-031700-
SOUTHEAST NORTH DAKOTA

CITY           SKY/WX    TMP DP  RH WIND       PRES   REMARKS
FARGO          SUNNY     72  53  51 NW9       29.94S
JAMESTOWN      SUNNY     71  49  45 NW14      30.00R
$$




USA.gov is the U.S. government's official web portal to all federal, state and local government web resources and services.